Location: Aytr�
(46.1357°N, 1.1145°W)
Time: 21:42:58
(UTC+00:00)

Meteor 2-4 Rocket - Pass Details

Date: 03 March 2021
Orbit: 799 x 908 km, 81.2° (Epoch: 21 April)

Event Time Altitude Azimuth Distance (km) Brightness Sun altitude
Rises 18:45:27 0° 353° (N) 3,488 7.0 -9.7°
Reaches altitude 10° 18:47:58 10° 358° (N) 2,559 6.3 -10.2°
Maximum altitude 18:53:39 51° 74° (ENE) 1,121 4.0 -11.2°
Drops below altitude 10° 18:59:24 10° 150° (SSE) 2,584 5.9 -12.2°
Sets 19:01:56 0° 155° (SSE) 3,524 6.6 -12.6°
